Year,Month,Day,Hour,Minute,Value (Times are PST for temperature in C)
2009,08,15,00,00,13.50
2009,08,15,00,01,13.40
2009,08,15,00,02,13.40
2009,08,15,00,03,13.30
2009,08,15,00,04,13.30
2009,08,15,00,05,13.20
2009,08,15,00,06,13.10
2009,08,15,00,07,13.10
2009,08,15,00,08,13.00
2009,08,15,00,09,13.00
2009,08,15,00,10,12.90
2009,08,15,00,11,12.90
2009,08,15,00,12,12.80
2009,08,15,00,13,12.80
2009,08,15,00,14,12.80
2009,08,15,00,15,12.70
2009,08,15,00,16,12.70
2009,08,15,00,17,12.70
2009,08,15,00,18,12.70
2009,08,15,00,19,12.60
2009,08,15,00,20,12.60
2009,08,15,00,21,12.60
2009,08,15,00,22,12.60
2009,08,15,00,23,12.50
2009,08,15,00,24,12.50
2009,08,15,00,25,12.50
2009,08,15,00,26,12.40
2009,08,15,00,27,12.40
2009,08,15,00,28,12.40
2009,08,15,00,29,12.40
2009,08,15,00,30,12.30
2009,08,15,00,31,12.30
2009,08,15,00,32,12.30
2009,08,15,00,33,12.30
2009,08,15,00,34,12.30
2009,08,15,00,35,12.30
2009,08,15,00,36,12.20
2009,08,15,00,37,12.20
2009,08,15,00,38,12.20
2009,08,15,00,39,12.20
2009,08,15,00,40,12.20
2009,08,15,00,41,12.10
2009,08,15,00,42,12.10
2009,08,15,00,43,12.10
2009,08,15,00,44,12.10
2009,08,15,00,45,12.10
2009,08,15,00,46,12.10
2009,08,15,00,47,12.00
2009,08,15,00,48,12.00
2009,08,15,00,49,12.00
2009,08,15,00,50,12.00
2009,08,15,00,51,12.00
2009,08,15,00,52,11.90
2009,08,15,00,53,11.90
2009,08,15,00,54,11.90
2009,08,15,00,55,11.90
2009,08,15,00,56,11.90
2009,08,15,00,57,11.90
2009,08,15,00,58,11.80
2009,08,15,00,59,11.80
2009,08,15,01,00,11.80
2009,08,15,01,01,11.80
2009,08,15,01,02,11.80
2009,08,15,01,03,11.80
2009,08,15,01,04,11.80
2009,08,15,01,05,11.80
2009,08,15,01,06,11.70
2009,08,15,01,07,11.70
2009,08,15,01,08,11.70
2009,08,15,01,09,11.70
2009,08,15,01,10,11.70
2009,08,15,01,11,11.70
2009,08,15,01,12,11.60
2009,08,15,01,13,11.60
2009,08,15,01,14,11.60
2009,08,15,01,15,11.60
2009,08,15,01,16,11.60
2009,08,15,01,17,11.60
2009,08,15,01,18,11.50
2009,08,15,01,19,11.50
2009,08,15,01,20,11.50
2009,08,15,01,21,11.50
2009,08,15,01,22,11.50
2009,08,15,01,23,11.40
2009,08,15,01,24,11.40
2009,08,15,01,25,11.40
2009,08,15,01,26,11.40
2009,08,15,01,27,11.40
2009,08,15,01,28,11.40
2009,08,15,01,29,11.40
2009,08,15,01,30,11.30
2009,08,15,01,31,11.30
2009,08,15,01,32,11.30
2009,08,15,01,33,11.30
2009,08,15,01,34,11.30
2009,08,15,01,35,11.30
2009,08,15,01,36,11.30
2009,08,15,01,37,11.30
2009,08,15,01,38,11.20
2009,08,15,01,39,11.20
2009,08,15,01,40,11.20
2009,08,15,01,41,11.20
2009,08,15,01,42,11.20
2009,08,15,01,43,11.20
2009,08,15,01,44,11.20
2009,08,15,01,45,11.20
2009,08,15,01,46,11.10
2009,08,15,01,47,11.10
2009,08,15,01,48,11.10
2009,08,15,01,49,11.10
2009,08,15,01,50,11.10
2009,08,15,01,51,11.10
2009,08,15,01,52,11.10
2009,08,15,01,53,11.00
2009,08,15,01,54,11.00
2009,08,15,01,55,11.00
2009,08,15,01,56,11.00
2009,08,15,01,57,11.00
2009,08,15,01,58,11.00
2009,08,15,01,59,10.90
2009,08,15,02,00,10.90
2009,08,15,02,01,10.90
2009,08,15,02,02,10.90
2009,08,15,02,03,10.90
2009,08,15,02,04,10.90
2009,08,15,02,05,10.90
2009,08,15,02,06,10.80
2009,08,15,02,07,10.80
2009,08,15,02,08,10.80
2009,08,15,02,09,10.80
2009,08,15,02,10,10.80
2009,08,15,02,11,10.80
2009,08,15,02,12,10.70
2009,08,15,02,13,10.70
2009,08,15,02,14,10.70
2009,08,15,02,15,10.70
2009,08,15,02,16,10.70
2009,08,15,02,17,10.70
2009,08,15,02,18,10.60
2009,08,15,02,19,10.60
2009,08,15,02,20,10.60
2009,08,15,02,21,10.60
2009,08,15,02,22,10.60
2009,08,15,02,23,10.60
2009,08,15,02,24,10.60
2009,08,15,02,25,10.60
2009,08,15,02,26,10.60
2009,08,15,02,27,10.60
2009,08,15,02,28,10.50
2009,08,15,02,29,10.50
2009,08,15,02,30,10.50
2009,08,15,02,31,10.50
2009,08,15,02,32,10.50
2009,08,15,02,33,10.50
2009,08,15,02,34,10.40
2009,08,15,02,35,10.40
2009,08,15,02,36,10.40
2009,08,15,02,37,10.40
2009,08,15,02,38,10.40
2009,08,15,02,39,10.40
2009,08,15,02,40,10.40
2009,08,15,02,41,10.40
2009,08,15,02,42,10.40
2009,08,15,02,43,10.30
2009,08,15,02,44,10.30
2009,08,15,02,45,10.30
2009,08,15,02,46,10.30
2009,08,15,02,47,10.30
2009,08,15,02,48,10.30
2009,08,15,02,49,10.30
2009,08,15,02,50,10.30
2009,08,15,02,51,10.20
2009,08,15,02,52,10.20
2009,08,15,02,53,10.20
2009,08,15,02,54,10.20
2009,08,15,02,55,10.20
2009,08,15,02,56,10.20
2009,08,15,02,57,10.10
2009,08,15,02,58,10.10
2009,08,15,02,59,10.10
2009,08,15,03,00,10.10
2009,08,15,03,01,10.10
2009,08,15,03,02,10.10
2009,08,15,03,03,10.00
2009,08,15,03,04,10.00
2009,08,15,03,05,10.00
2009,08,15,03,06,10.00
2009,08,15,03,07,10.00
2009,08,15,03,08,10.00
2009,08,15,03,09,10.00
2009,08,15,03,10,10.00
2009,08,15,03,11,10.00
2009,08,15,03,12,9.90
2009,08,15,03,13,9.90
2009,08,15,03,14,9.90
2009,08,15,03,15,9.90
2009,08,15,03,16,9.90
2009,08,15,03,17,9.90
2009,08,15,03,18,9.90
2009,08,15,03,19,9.90
2009,08,15,03,20,9.90
2009,08,15,03,21,9.90
2009,08,15,03,22,9.90
2009,08,15,03,23,9.80
2009,08,15,03,24,9.80
2009,08,15,03,25,9.80
2009,08,15,03,26,9.80
2009,08,15,03,27,9.80
2009,08,15,03,28,9.80
2009,08,15,03,29,9.80
2009,08,15,03,30,9.80
2009,08,15,03,31,9.80
2009,08,15,03,32,9.80
2009,08,15,03,33,9.80
2009,08,15,03,34,9.80
2009,08,15,03,35,9.80
2009,08,15,03,36,9.80
2009,08,15,03,37,9.70
2009,08,15,03,38,9.70
2009,08,15,03,39,9.70
2009,08,15,03,40,9.70
2009,08,15,03,41,9.70
2009,08,15,03,42,9.70
2009,08,15,03,43,9.70
2009,08,15,03,44,9.70
2009,08,15,03,45,9.70
2009,08,15,03,46,9.70
2009,08,15,03,47,9.60
2009,08,15,03,48,9.60
2009,08,15,03,49,9.60
2009,08,15,03,50,9.60
2009,08,15,03,51,9.60
2009,08,15,03,52,9.60
2009,08,15,03,53,9.60
2009,08,15,03,54,9.60
2009,08,15,03,55,9.60
2009,08,15,03,56,9.60
2009,08,15,03,57,9.60
2009,08,15,03,58,9.50
2009,08,15,03,59,9.50
2009,08,15,04,00,9.50
2009,08,15,04,01,9.40
2009,08,15,04,02,9.40
2009,08,15,04,03,9.40
2009,08,15,04,04,9.40
2009,08,15,04,05,9.40
2009,08,15,04,06,9.40
2009,08,15,04,07,9.40
2009,08,15,04,08,9.40
2009,08,15,04,09,9.40
2009,08,15,04,10,9.40
2009,08,15,04,11,9.40
2009,08,15,04,12,9.40
2009,08,15,04,13,9.30
2009,08,15,04,14,9.30
2009,08,15,04,15,9.30
2009,08,15,04,16,9.30
2009,08,15,04,17,9.30
2009,08,15,04,18,9.30
2009,08,15,04,19,9.30
2009,08,15,04,20,9.30
2009,08,15,04,21,9.30
2009,08,15,04,22,9.30
2009,08,15,04,23,9.30
2009,08,15,04,24,9.30
2009,08,15,04,25,9.30
2009,08,15,04,26,9.30
2009,08,15,04,27,9.30
2009,08,15,04,28,9.30
2009,08,15,04,29,9.30
2009,08,15,04,30,9.30
2009,08,15,04,31,9.30
2009,08,15,04,32,9.30
2009,08,15,04,33,9.30
2009,08,15,04,34,9.30
2009,08,15,04,35,9.30
2009,08,15,04,36,9.30
2009,08,15,04,37,9.20
2009,08,15,04,38,9.20
2009,08,15,04,39,9.20
2009,08,15,04,40,9.20
2009,08,15,04,41,9.20
2009,08,15,04,42,9.20
2009,08,15,04,43,9.20
2009,08,15,04,44,9.20
2009,08,15,04,45,9.20
2009,08,15,04,46,9.20
2009,08,15,04,47,9.20
2009,08,15,04,48,9.20
2009,08,15,04,49,9.20
2009,08,15,04,50,9.10
2009,08,15,04,51,9.10
2009,08,15,04,52,9.10
2009,08,15,04,53,9.10
2009,08,15,04,54,9.10
2009,08,15,04,55,9.10
2009,08,15,04,56,9.10
2009,08,15,04,57,9.10
2009,08,15,04,58,9.10
2009,08,15,04,59,9.10
2009,08,15,05,00,9.10
2009,08,15,05,01,9.10
2009,08,15,05,02,9.00
2009,08,15,05,03,9.00
2009,08,15,05,04,9.10
2009,08,15,05,05,9.10
2009,08,15,05,06,9.10
2009,08,15,05,07,9.10
2009,08,15,05,08,9.10
2009,08,15,05,09,9.10
2009,08,15,05,10,9.10
2009,08,15,05,11,9.00
2009,08,15,05,12,9.00
2009,08,15,05,13,9.00
2009,08,15,05,14,9.00
2009,08,15,05,15,8.90
2009,08,15,05,16,8.90
2009,08,15,05,17,8.90
2009,08,15,05,18,8.90
2009,08,15,05,19,8.90
2009,08,15,05,20,8.80
2009,08,15,05,21,8.80
2009,08,15,05,22,8.80
2009,08,15,05,23,8.80
2009,08,15,05,24,8.80
2009,08,15,05,25,8.70
2009,08,15,05,26,8.70
2009,08,15,05,27,8.70
2009,08,15,05,28,8.80
2009,08,15,05,29,8.80
2009,08,15,05,30,8.80
2009,08,15,05,31,8.90
2009,08,15,05,32,8.90
2009,08,15,05,33,8.90
2009,08,15,05,34,8.90
2009,08,15,05,35,8.90
2009,08,15,05,36,8.90
2009,08,15,05,37,9.00
2009,08,15,05,38,9.00
2009,08,15,05,39,9.00
2009,08,15,05,40,9.00
2009,08,15,05,41,9.00
2009,08,15,05,42,9.00
2009,08,15,05,43,9.00
2009,08,15,05,44,9.00
2009,08,15,05,45,9.00
2009,08,15,05,46,9.00
2009,08,15,05,47,9.00
2009,08,15,05,48,9.00
2009,08,15,05,49,9.00
2009,08,15,05,50,9.10
2009,08,15,05,51,9.10
2009,08,15,05,52,9.10
2009,08,15,05,53,9.10
2009,08,15,05,54,9.10
2009,08,15,05,55,9.20
2009,08,15,05,56,9.20
2009,08,15,05,57,9.20
2009,08,15,05,58,9.20
2009,08,15,05,59,9.20
2009,08,15,06,00,9.20
2009,08,15,06,01,9.20
2009,08,15,06,02,9.20
2009,08,15,06,03,9.20
2009,08,15,06,04,9.20
2009,08,15,06,05,9.20
2009,08,15,06,06,9.20
2009,08,15,06,07,9.20
2009,08,15,06,08,9.20
2009,08,15,06,09,9.20
2009,08,15,06,10,9.20
2009,08,15,06,11,9.20
2009,08,15,06,12,9.20
2009,08,15,06,13,9.20
2009,08,15,06,14,9.20
2009,08,15,06,15,9.20
2009,08,15,06,16,9.20
2009,08,15,06,17,9.20
2009,08,15,06,18,9.20
2009,08,15,06,19,9.20
2009,08,15,06,20,9.20
2009,08,15,06,21,9.20
2009,08,15,06,22,9.20
2009,08,15,06,23,9.20
2009,08,15,06,24,9.20
2009,08,15,06,25,9.30
2009,08,15,06,26,9.30
2009,08,15,06,27,9.30
2009,08,15,06,28,9.30
2009,08,15,06,29,9.30
2009,08,15,06,30,9.30
2009,08,15,06,31,9.30
2009,08,15,06,32,9.40
2009,08,15,06,33,9.40
2009,08,15,06,34,9.40
2009,08,15,06,35,9.40
2009,08,15,06,36,9.40
2009,08,15,06,37,9.50
2009,08,15,06,38,9.50
2009,08,15,06,39,9.50
2009,08,15,06,40,9.60
2009,08,15,06,41,9.60
2009,08,15,06,42,9.60
2009,08,15,06,43,9.60
2009,08,15,06,44,9.60
2009,08,15,06,45,9.60
2009,08,15,06,46,9.60
2009,08,15,06,47,9.60
2009,08,15,06,48,9.60
2009,08,15,06,49,9.70
2009,08,15,06,50,9.70
2009,08,15,06,51,9.70
2009,08,15,06,52,9.70
2009,08,15,06,53,9.70
2009,08,15,06,54,9.70
2009,08,15,06,55,9.70
2009,08,15,06,56,9.70
2009,08,15,06,57,9.70
2009,08,15,06,58,9.70
2009,08,15,06,59,9.80
2009,08,15,07,00,9.80
2009,08,15,07,01,9.80
2009,08,15,07,02,9.80
2009,08,15,07,03,9.80
2009,08,15,07,04,9.80
2009,08,15,07,05,9.80
2009,08,15,07,06,9.80
2009,08,15,07,07,9.90
2009,08,15,07,08,9.90
2009,08,15,07,09,9.90
2009,08,15,07,10,10.00
2009,08,15,07,11,10.00
2009,08,15,07,12,10.10
2009,08,15,07,13,10.10
2009,08,15,07,14,10.10
2009,08,15,07,15,10.20
2009,08,15,07,16,10.20
2009,08,15,07,17,10.20
2009,08,15,07,18,10.20
2009,08,15,07,19,10.30
2009,08,15,07,20,10.30
2009,08,15,07,21,10.30
2009,08,15,07,22,10.30
2009,08,15,07,23,10.30
2009,08,15,07,24,10.30
2009,08,15,07,25,10.40
2009,08,15,07,26,10.40
2009,08,15,07,27,10.40
2009,08,15,07,28,10.40
2009,08,15,07,29,10.40
2009,08,15,07,30,10.50
2009,08,15,07,31,10.50
2009,08,15,07,32,10.50
2009,08,15,07,33,10.50
2009,08,15,07,34,10.60
2009,08,15,07,35,10.60
2009,08,15,07,36,10.60
2009,08,15,07,37,10.60
2009,08,15,07,38,10.70
2009,08,15,07,39,10.70
2009,08,15,07,40,10.70
2009,08,15,07,41,10.70
2009,08,15,07,42,10.80
2009,08,15,07,43,10.80
2009,08,15,07,44,10.80
2009,08,15,07,45,10.80
2009,08,15,07,46,10.80
2009,08,15,07,47,10.90
2009,08,15,07,48,10.90
2009,08,15,07,49,10.90
2009,08,15,07,50,11.00
2009,08,15,07,51,11.00
2009,08,15,07,52,11.10
2009,08,15,07,53,11.10
2009,08,15,07,54,11.10
2009,08,15,07,55,11.20
2009,08,15,07,56,11.20
2009,08,15,07,57,11.20
2009,08,15,07,58,11.30
2009,08,15,07,59,11.30
2009,08,15,08,00,11.30
2009,08,15,08,01,11.30
2009,08,15,08,02,11.40
2009,08,15,08,03,11.40
2009,08,15,08,04,11.50
2009,08,15,08,05,11.50
2009,08,15,08,06,11.60
2009,08,15,08,07,11.60
2009,08,15,08,08,11.70
2009,08,15,08,09,11.70
2009,08,15,08,10,11.80
2009,08,15,08,11,11.80
2009,08,15,08,12,11.80
2009,08,15,08,13,11.80
2009,08,15,08,14,11.80
2009,08,15,08,15,11.90
2009,08,15,08,16,11.90
2009,08,15,08,17,11.90
2009,08,15,08,18,11.90
2009,08,15,08,19,12.00
2009,08,15,08,20,12.00
2009,08,15,08,21,12.00
2009,08,15,08,22,12.00
2009,08,15,08,23,12.10
2009,08,15,08,24,12.10
2009,08,15,08,25,12.10
2009,08,15,08,26,12.20
2009,08,15,08,27,12.20
2009,08,15,08,28,12.20
2009,08,15,08,29,12.30
2009,08,15,08,30,12.30
2009,08,15,08,31,12.30
2009,08,15,08,32,12.30
2009,08,15,08,33,12.40
2009,08,15,08,34,12.50
2009,08,15,08,35,12.50
2009,08,15,08,36,12.60
2009,08,15,08,37,12.70
2009,08,15,08,38,12.70
2009,08,15,08,39,12.80
2009,08,15,08,40,12.90
2009,08,15,08,41,12.90
2009,08,15,08,42,13.00
2009,08,15,08,43,13.00
2009,08,15,08,44,13.10
2009,08,15,08,45,13.10
2009,08,15,08,46,13.20
2009,08,15,08,47,13.20
2009,08,15,08,48,13.20
2009,08,15,08,49,13.30
2009,08,15,08,50,13.30
2009,08,15,08,51,13.30
2009,08,15,08,52,13.40
2009,08,15,08,53,13.40
2009,08,15,08,54,13.40
2009,08,15,08,55,13.50
2009,08,15,08,56,13.60
2009,08,15,08,57,13.60
2009,08,15,08,58,13.60
2009,08,15,08,59,13.60
2009,08,15,09,00,13.70
2009,08,15,09,01,13.70
2009,08,15,09,02,13.70
2009,08,15,09,03,13.80
2009,08,15,09,04,13.80
2009,08,15,09,05,13.90
2009,08,15,09,06,13.90
2009,08,15,09,07,13.90
2009,08,15,09,08,14.00
2009,08,15,09,09,14.00
2009,08,15,09,10,14.10
2009,08,15,09,11,14.10
2009,08,15,09,12,14.10
2009,08,15,09,13,14.20
2009,08,15,09,14,14.20
2009,08,15,09,15,14.30
2009,08,15,09,16,14.30
2009,08,15,09,17,14.30
2009,08,15,09,18,14.40
2009,08,15,09,19,14.40
2009,08,15,09,20,14.50
2009,08,15,09,21,14.50
2009,08,15,09,22,14.50
2009,08,15,09,23,14.60
2009,08,15,09,24,14.60
2009,08,15,09,25,14.50
2009,08,15,09,26,14.50
2009,08,15,09,27,14.50
2009,08,15,09,28,14.50
2009,08,15,09,29,14.50
2009,08,15,09,30,14.50
2009,08,15,09,31,14.50
2009,08,15,09,32,14.50
2009,08,15,09,33,14.50
2009,08,15,09,34,14.50
2009,08,15,09,35,14.50
2009,08,15,09,36,14.50
2009,08,15,09,37,14.50
2009,08,15,09,38,14.50
2009,08,15,09,39,14.60
2009,08,15,09,40,14.60
2009,08,15,09,41,14.50
2009,08,15,09,42,14.50
2009,08,15,09,43,14.50
2009,08,15,09,44,14.50
2009,08,15,09,45,14.50
2009,08,15,09,46,14.60
2009,08,15,09,47,14.60
2009,08,15,09,48,14.60
2009,08,15,09,49,14.60
2009,08,15,09,50,14.60
2009,08,15,09,51,14.60
2009,08,15,09,52,14.60
2009,08,15,09,53,14.70
2009,08,15,09,54,14.70
2009,08,15,09,55,14.70
2009,08,15,09,56,14.70
2009,08,15,09,57,14.80
2009,08,15,09,58,14.80
2009,08,15,09,59,14.90
2009,08,15,10,00,15.00
2009,08,15,10,01,15.00
2009,08,15,10,02,15.00
2009,08,15,10,03,15.00
2009,08,15,10,04,15.00
2009,08,15,10,05,15.10
2009,08,15,10,06,15.20
2009,08,15,10,07,15.20
2009,08,15,10,08,15.20
2009,08,15,10,09,15.30
2009,08,15,10,10,15.20
2009,08,15,10,11,15.20
2009,08,15,10,12,15.20
2009,08,15,10,13,15.20
2009,08,15,10,14,15.20
2009,08,15,10,15,15.20
2009,08,15,10,16,15.20
2009,08,15,10,17,15.20
2009,08,15,10,18,15.30
2009,08,15,10,19,15.30
2009,08,15,10,20,15.30
2009,08,15,10,21,15.30
2009,08,15,10,22,15.30
2009,08,15,10,23,15.40
2009,08,15,10,24,15.40
2009,08,15,10,25,15.50
2009,08,15,10,26,15.60
2009,08,15,10,27,15.70
2009,08,15,10,28,15.80
2009,08,15,10,29,15.80
2009,08,15,10,30,15.80
2009,08,15,10,31,15.80
2009,08,15,10,32,15.80
2009,08,15,10,33,15.80
2009,08,15,10,34,15.80
2009,08,15,10,35,15.80
2009,08,15,10,36,15.80
2009,08,15,10,37,15.80
2009,08,15,10,38,15.80
2009,08,15,10,39,16.00
2009,08,15,10,40,16.10
2009,08,15,10,41,16.20
2009,08,15,10,42,16.30
2009,08,15,10,43,16.40
2009,08,15,10,44,16.50
2009,08,15,10,45,16.60
2009,08,15,10,46,16.70
2009,08,15,10,47,16.70
2009,08,15,10,48,16.70
2009,08,15,10,49,16.70
2009,08,15,10,50,16.70
2009,08,15,10,51,16.70
2009,08,15,10,52,16.70
2009,08,15,10,53,16.70
2009,08,15,10,54,16.70
2009,08,15,10,55,16.70
2009,08,15,10,56,16.60
2009,08,15,10,57,16.50
2009,08,15,10,58,16.40
2009,08,15,10,59,16.40
2009,08,15,11,00,16.50
2009,08,15,11,01,16.50
2009,08,15,11,02,16.60
2009,08,15,11,03,16.60
2009,08,15,11,04,16.60
2009,08,15,11,05,16.70
2009,08,15,11,06,16.70
2009,08,15,11,07,16.80
2009,08,15,11,08,16.80
2009,08,15,11,09,16.80
2009,08,15,11,10,16.80
2009,08,15,11,11,16.80
2009,08,15,11,12,16.70
2009,08,15,11,13,16.70
2009,08,15,11,14,16.80
2009,08,15,11,15,16.80
2009,08,15,11,16,16.80
2009,08,15,11,17,16.80
2009,08,15,11,18,16.70
2009,08,15,11,19,16.70
2009,08,15,11,20,16.60
2009,08,15,11,21,16.60
2009,08,15,11,22,16.50
2009,08,15,11,23,16.40
2009,08,15,11,24,16.40
2009,08,15,11,25,16.40
2009,08,15,11,26,16.30
2009,08,15,11,27,16.30
2009,08,15,11,28,16.30
2009,08,15,11,29,16.30
2009,08,15,11,30,16.30
2009,08,15,11,31,16.30
2009,08,15,11,32,16.40
2009,08,15,11,33,16.40
2009,08,15,11,34,16.30
2009,08,15,11,35,16.40
2009,08,15,11,36,16.40
2009,08,15,11,37,16.50
2009,08,15,11,38,16.60
2009,08,15,11,39,16.70
2009,08,15,11,40,16.70
2009,08,15,11,41,16.80
2009,08,15,11,42,16.80
2009,08,15,11,43,16.80
2009,08,15,11,44,16.80
2009,08,15,11,45,16.80
2009,08,15,11,46,16.90
2009,08,15,11,47,16.90
2009,08,15,11,48,16.90
2009,08,15,11,49,16.90
2009,08,15,11,50,16.90
2009,08,15,11,51,16.90
2009,08,15,11,52,16.80
2009,08,15,11,53,16.80
2009,08,15,11,54,16.70
2009,08,15,11,55,16.70
2009,08,15,11,56,16.60
2009,08,15,11,57,16.50
2009,08,15,11,58,16.40
2009,08,15,11,59,16.30
2009,08,15,12,00,16.30
2009,08,15,12,01,16.30
2009,08,15,12,02,16.40
2009,08,15,12,03,16.40
2009,08,15,12,04,16.50
2009,08,15,12,05,16.50
2009,08,15,12,06,16.50
2009,08,15,12,07,16.50
2009,08,15,12,08,16.40
2009,08,15,12,09,16.40
2009,08,15,12,10,16.40
2009,08,15,12,11,16.20
2009,08,15,12,12,16.20
2009,08,15,12,13,16.20
2009,08,15,12,14,16.20
2009,08,15,12,15,16.30
2009,08,15,12,16,16.30
2009,08,15,12,17,16.40
2009,08,15,12,18,16.40
2009,08,15,12,19,16.30
2009,08,15,12,20,16.20
2009,08,15,12,21,16.20
2009,08,15,12,22,16.20
2009,08,15,12,23,16.20
2009,08,15,12,24,16.30
2009,08,15,12,25,16.30
2009,08,15,12,26,16.30
2009,08,15,12,27,16.30
2009,08,15,12,28,16.20
2009,08,15,12,29,16.20
2009,08,15,12,30,16.20
2009,08,15,12,31,16.20
2009,08,15,12,32,16.20
2009,08,15,12,33,16.30
2009,08,15,12,34,16.30
2009,08,15,12,35,16.30
2009,08,15,12,36,16.30
2009,08,15,12,37,16.40
2009,08,15,12,38,16.40
2009,08,15,12,39,16.60
2009,08,15,12,40,16.80
2009,08,15,12,41,16.80
2009,08,15,12,42,16.90
2009,08,15,12,43,17.00
2009,08,15,12,44,17.10
2009,08,15,12,45,17.10
2009,08,15,12,46,17.10
2009,08,15,12,47,16.90
2009,08,15,12,48,16.90
2009,08,15,12,49,17.00
2009,08,15,12,50,17.00
2009,08,15,12,51,17.10
2009,08,15,12,52,17.10
2009,08,15,12,53,17.10
2009,08,15,12,54,17.10
2009,08,15,12,55,17.00
2009,08,15,12,56,16.90
2009,08,15,12,57,16.80
2009,08,15,12,58,16.80
2009,08,15,12,59,16.90
2009,08,15,13,00,16.90
2009,08,15,13,01,16.90
2009,08,15,13,02,16.90
2009,08,15,13,03,16.90
2009,08,15,13,04,17.00
2009,08,15,13,05,17.00
2009,08,15,13,06,17.10
2009,08,15,13,07,17.20
2009,08,15,13,08,17.30
2009,08,15,13,09,17.40
2009,08,15,13,10,17.60
2009,08,15,13,11,17.70
2009,08,15,13,12,17.90
2009,08,15,13,13,18.00
2009,08,15,13,14,18.10
2009,08,15,13,15,18.10
2009,08,15,13,16,18.00
2009,08,15,13,17,17.90
2009,08,15,13,18,17.70
2009,08,15,13,19,17.60
2009,08,15,13,20,17.60
2009,08,15,13,21,17.70
2009,08,15,13,22,17.70
2009,08,15,13,23,17.70
2009,08,15,13,24,17.60
2009,08,15,13,25,17.50
2009,08,15,13,26,17.40
2009,08,15,13,27,17.40
2009,08,15,13,28,17.50
2009,08,15,13,29,17.50
2009,08,15,13,30,17.50
2009,08,15,13,31,17.40
2009,08,15,13,32,17.40
2009,08,15,13,33,17.40
2009,08,15,13,34,17.40
2009,08,15,13,35,17.50
2009,08,15,13,36,17.60
2009,08,15,13,37,17.70
2009,08,15,13,38,17.80
2009,08,15,13,39,17.90
2009,08,15,13,40,18.10
2009,08,15,13,41,18.10
2009,08,15,13,42,18.00
2009,08,15,13,43,18.00
2009,08,15,13,44,18.10
2009,08,15,13,45,18.20
2009,08,15,13,46,18.30
2009,08,15,13,47,18.30
2009,08,15,13,48,18.30
2009,08,15,13,49,18.30
2009,08,15,13,50,18.30
2009,08,15,13,51,18.30
2009,08,15,13,52,18.20
2009,08,15,13,53,18.20
2009,08,15,13,54,18.20
2009,08,15,13,55,18.30
2009,08,15,13,56,18.40
2009,08,15,13,57,18.50
2009,08,15,13,58,18.60
2009,08,15,13,59,18.60
2009,08,15,14,00,18.60
2009,08,15,14,01,18.60
2009,08,15,14,02,18.40
2009,08,15,14,03,18.30
2009,08,15,14,04,18.20
2009,08,15,14,05,18.20
2009,08,15,14,06,18.10
2009,08,15,14,07,18.00
2009,08,15,14,08,17.90
2009,08,15,14,09,17.80
2009,08,15,14,10,17.70
2009,08,15,14,11,17.60
2009,08,15,14,12,17.60
2009,08,15,14,13,17.70
2009,08,15,14,14,17.70
2009,08,15,14,15,17.60
2009,08,15,14,16,17.60
2009,08,15,14,17,17.60
2009,08,15,14,18,17.60
2009,08,15,14,19,17.60
2009,08,15,14,20,17.60
2009,08,15,14,21,17.70
2009,08,15,14,22,17.70
2009,08,15,14,23,17.70
2009,08,15,14,24,17.60
2009,08,15,14,25,17.50
2009,08,15,14,26,17.50
2009,08,15,14,27,17.40
2009,08,15,14,28,17.50
2009,08,15,14,29,17.70
2009,08,15,14,30,17.80
2009,08,15,14,31,17.80
2009,08,15,14,32,17.70
2009,08,15,14,33,17.70
2009,08,15,14,34,17.60
2009,08,15,14,35,17.70
2009,08,15,14,36,17.80
2009,08,15,14,37,17.70
2009,08,15,14,38,17.70
2009,08,15,14,39,17.60
2009,08,15,14,40,17.50
2009,08,15,14,41,17.50
2009,08,15,14,42,17.50
2009,08,15,14,43,17.40
2009,08,15,14,44,17.40
2009,08,15,14,45,17.40
2009,08,15,14,46,17.50
2009,08,15,14,47,17.60
2009,08,15,14,48,17.70
2009,08,15,14,49,17.70
2009,08,15,14,50,17.80
2009,08,15,14,51,17.80
2009,08,15,14,52,17.80
2009,08,15,14,53,17.90
2009,08,15,14,54,18.00
2009,08,15,14,55,18.10
2009,08,15,14,56,18.10
2009,08,15,14,57,18.10
2009,08,15,14,58,18.20
2009,08,15,14,59,18.20
2009,08,15,15,00,18.30
2009,08,15,15,01,18.30
2009,08,15,15,02,18.20
2009,08,15,15,03,18.20
2009,08,15,15,04,18.20
2009,08,15,15,05,18.20
2009,08,15,15,06,18.20
2009,08,15,15,07,18.20
2009,08,15,15,08,18.30
2009,08,15,15,09,18.20
2009,08,15,15,10,18.20
2009,08,15,15,11,18.20
2009,08,15,15,12,18.20
2009,08,15,15,13,18.30
2009,08,15,15,14,18.30
2009,08,15,15,15,18.30
2009,08,15,15,16,18.30
2009,08,15,15,17,18.30
2009,08,15,15,18,18.30
2009,08,15,15,19,18.30
2009,08,15,15,20,18.30
2009,08,15,15,21,18.30
2009,08,15,15,22,18.30
2009,08,15,15,23,18.40
2009,08,15,15,24,18.50
2009,08,15,15,25,18.50
2009,08,15,15,26,18.50
2009,08,15,15,27,18.50
2009,08,15,15,28,18.40
2009,08,15,15,29,18.40
2009,08,15,15,30,18.40
2009,08,15,15,31,18.40
2009,08,15,15,32,18.40
2009,08,15,15,33,18.40
2009,08,15,15,34,18.40
2009,08,15,15,35,18.30
2009,08,15,15,36,18.40
2009,08,15,15,37,18.40
2009,08,15,15,38,18.40
2009,08,15,15,39,18.50
2009,08,15,15,40,18.40
2009,08,15,15,41,18.40
2009,08,15,15,42,18.30
2009,08,15,15,43,18.40
2009,08,15,15,44,18.40
2009,08,15,15,45,18.40
2009,08,15,15,46,18.40
2009,08,15,15,47,18.40
2009,08,15,15,48,18.30
2009,08,15,15,49,18.30
2009,08,15,15,50,18.40
2009,08,15,15,51,18.40
2009,08,15,15,52,18.40
2009,08,15,15,53,18.50
2009,08,15,15,54,18.60
2009,08,15,15,55,18.70
2009,08,15,15,56,18.70
2009,08,15,15,57,18.60
2009,08,15,15,58,18.50
2009,08,15,15,59,18.50
2009,08,15,16,00,18.50
2009,08,15,16,01,18.40
2009,08,15,16,02,18.40
2009,08,15,16,03,18.50
2009,08,15,16,04,18.50
2009,08,15,16,05,18.40
2009,08,15,16,06,18.40
2009,08,15,16,07,18.30
2009,08,15,16,08,18.30
2009,08,15,16,09,18.30
2009,08,15,16,10,18.30
2009,08,15,16,11,18.40
2009,08,15,16,12,18.40
2009,08,15,16,13,18.50
2009,08,15,16,14,18.60
2009,08,15,16,15,18.60
2009,08,15,16,16,18.60
2009,08,15,16,17,18.60
2009,08,15,16,18,18.50
2009,08,15,16,19,18.30
2009,08,15,16,20,18.20
2009,08,15,16,21,18.20
2009,08,15,16,22,18.10
2009,08,15,16,23,18.10
2009,08,15,16,24,18.00
2009,08,15,16,25,18.00
2009,08,15,16,26,17.90
2009,08,15,16,27,17.90
2009,08,15,16,28,17.90
2009,08,15,16,29,18.00
2009,08,15,16,30,18.00
2009,08,15,16,31,18.00
2009,08,15,16,32,18.00
2009,08,15,16,33,18.00
2009,08,15,16,34,18.00
2009,08,15,16,35,18.00
2009,08,15,16,36,18.00
2009,08,15,16,37,18.00
2009,08,15,16,38,17.90
2009,08,15,16,39,17.90
2009,08,15,16,40,17.80
2009,08,15,16,41,17.80
2009,08,15,16,42,17.80
2009,08,15,16,43,17.80
2009,08,15,16,44,17.80
2009,08,15,16,45,17.80
2009,08,15,16,46,17.80
2009,08,15,16,47,17.80
2009,08,15,16,48,17.90
2009,08,15,16,49,17.90
2009,08,15,16,50,17.90
2009,08,15,16,51,17.90
2009,08,15,16,52,17.90
2009,08,15,16,53,17.90
2009,08,15,16,54,18.00
2009,08,15,16,55,18.00
2009,08,15,16,56,17.90
2009,08,15,16,57,17.90
2009,08,15,16,58,17.80
2009,08,15,16,59,17.80
2009,08,15,17,00,17.70
2009,08,15,17,01,17.70
2009,08,15,17,02,17.70
2009,08,15,17,03,17.70
2009,08,15,17,04,17.70
2009,08,15,17,05,17.70
2009,08,15,17,06,17.70
2009,08,15,17,07,17.70
2009,08,15,17,08,17.70
2009,08,15,17,09,17.70
2009,08,15,17,10,17.70
2009,08,15,17,11,17.70
2009,08,15,17,12,17.80
2009,08,15,17,13,17.80
2009,08,15,17,14,17.80
2009,08,15,17,15,17.90
2009,08,15,17,16,17.90
2009,08,15,17,17,17.90
2009,08,15,17,18,17.90
2009,08,15,17,19,17.90
2009,08,15,17,20,18.00
2009,08,15,17,21,18.00
2009,08,15,17,22,18.00
2009,08,15,17,23,17.90
2009,08,15,17,24,17.90
2009,08,15,17,25,17.80
2009,08,15,17,26,17.80
2009,08,15,17,27,17.80
2009,08,15,17,28,17.80
2009,08,15,17,29,17.80